• In Belgium
  • List of Countries
  • For 7 days
  • Water Temperature
  • Satellite Maps
  • Weather Map
  • Weather Widgets
  • user-avatar
    Login

    Hourly Weather Lompoc

    Today, 24 January, Wednesday

    Time Temperature Precipitation Wind Pressure Humidity
    00:00 +13°C° 0 mm 2 mps 760 mmHg 61%
    01:00 +13°C° 0 mm 2 mps 760 mmHg 59%
    02:00 +13°C° 0 mm 2 mps 760 mmHg 58%
    03:00 +13°C° 0 mm 2 mps 760 mmHg 57%
    04:00 +12°C° 0 mm 2 mps 760 mmHg 56%
    05:00 +12°C° 0 mm 2 mps 760 mmHg 55%
    06:00 +12°C° 0 mm 2 mps 760 mmHg 54%
    07:00 +12°C° 0 mm 2 mps 760 mmHg 53%
    08:00 +14°C° 0 mm 1 mps 760 mmHg 48%
    09:00 +16°C° 0 mm 1 mps 760 mmHg 44%
    10:00 +19°C° 0 mm 1 mps 760 mmHg 39%
    11:00 +20°C° 0 mm 1 mps 760 mmHg 39%
    12:00 +19°C° 0 mm 2 mps 760 mmHg 39%
    13:00 +20°C° 0 mm 2 mps 759 mmHg 38%
    14:00 +19°C° 0 mm 2 mps 759 mmHg 43%
    15:00 +18°C° 0 mm 3 mps 759 mmHg 48%
    16:00 +17°C° 0 mm 3 mps 758 mmHg 53%
    17:00 +16°C° 0 mm 2 mps 758 mmHg 60%
    18:00 +14°C° 0 mm 2 mps 758 mmHg 66%
    19:00 +13°C° 0 mm 2 mps 759 mmHg 73%
    20:00 +13°C° 0 mm 2 mps 759 mmHg 72%
    21:00 +12°C° 0 mm 2 mps 759 mmHg 71%
    22:00 +12°C° 0 mm 2 mps 759 mmHg 69%
    23:00 +12°C° 0.2 mm 2 mps 759 mmHg 72%

    Tomorrow, 25 January, Thursday

    Time Temperature Precipitation Wind Pressure Humidity
    00:00 +12°C° 0.2 mm 3 mps 759 mmHg 74%
    01:00 +12°C° 0.2 mm 3 mps 759 mmHg 76%
    02:00 +12°C° 0.1 mm 4 mps 759 mmHg 80%
    03:00 +12°C° 0.1 mm 5 mps 759 mmHg 83%
    04:00 +12°C° 0.1 mm 5 mps 759 mmHg 87%
    05:00 +10°C° 0 mm 5 mps 759 mmHg 84%
    06:00 +9°C° 0 mm 5 mps 759 mmHg 82%
    07:00 +8°C° 0 mm 4 mps 760 mmHg 79%
    08:00 +10°C° 0 mm 4 mps 760 mmHg 73%
    09:00 +12°C° 0 mm 5 mps 760 mmHg 66%
    10:00 +13°C° 0 mm 5 mps 761 mmHg 59%
    11:00 +14°C° 0 mm 5 mps 761 mmHg 55%
    12:00 +14°C° 0 mm 5 mps 760 mmHg 51%
    13:00 +15°C° 0 mm 5 mps 760 mmHg 47%
    14:00 +14°C° 0 mm 5 mps 760 mmHg 50%
    15:00 +14°C° 0 mm 5 mps 760 mmHg 53%
    16:00 +13°C° 0 mm 5 mps 760 mmHg 56%
    17:00 +12°C° 0 mm 5 mps 760 mmHg 61%
    18:00 +10°C° 0 mm 5 mps 760 mmHg 65%
    19:00 +9°C° 0 mm 5 mps 761 mmHg 70%
    20:00 +9°C° 0 mm 5 mps 761 mmHg 71%
    21:00 +9°C° 0 mm 5 mps 762 mmHg 71%
    22:00 +8°C° 0 mm 5 mps 762 mmHg 72%
    23:00 +8°C° 0 mm 5 mps 762 mmHg 73%

    Day after tomorrow, 26 January, Friday

    Time Temperature Precipitation Wind Pressure Humidity
    00:00 +8°C° 0 mm 6 mps 762 mmHg 73%
    01:00 +8°C° 0 mm 6 mps 762 mmHg 74%
    02:00 +8°C° 0 mm 6 mps 762 mmHg 75%
    03:00 +7°C° 0 mm 5 mps 762 mmHg 75%
    04:00 +7°C° 0 mm 5 mps 762 mmHg 76%
    05:00 +7°C° 0 mm 5 mps 762 mmHg 75%
    06:00 +7°C° 0 mm 5 mps 762 mmHg 75%
    07:00 +7°C° 0 mm 5 mps 762 mmHg 74%
    08:00 +9°C° 0 mm 5 mps 763 mmHg 66%
    09:00 +10°C° 0 mm 5 mps 763 mmHg 58%
    10:00 +13°C° 0 mm 5 mps 763 mmHg 50%
    11:00 +14°C° 0 mm 6 mps 763 mmHg 48%
    12:00 +15°C° 0 mm 6 mps 763 mmHg 45%
    13:00 +16°C° 0 mm 7 mps 762 mmHg 43%
    14:00 +16°C° 0 mm 7 mps 762 mmHg 45%
    15:00 +15°C° 0 mm 7 mps 762 mmHg 46%
    16:00 +15°C° 0 mm 7 mps 761 mmHg 48%
    17:00 +14°C° 0 mm 7 mps 762 mmHg 53%
    18:00 +11°C° 0 mm 7 mps 762 mmHg 58%
    19:00 +10°C° 0 mm 6 mps 762 mmHg 63%
    20:00 +10°C° 0 mm 6 mps 762 mmHg 63%
    21:00 +9°C° 0 mm 6 mps 763 mmHg 63%
    22:00 +9°C° 0 mm 5 mps 763 mmHg 63%
    23:00 +9°C° 0 mm 5 mps 763 mmHg 63%

    27 January, Saturday

    Time Temperature Precipitation Wind Pressure Humidity
    00:00 +9°C° 0 mm 5 mps 763 mmHg 62%
    01:00 +8°C° 0 mm 5 mps 763 mmHg 62%
    02:00 +8°C° 0 mm 5 mps 763 mmHg 62%
    03:00 +8°C° 0 mm 5 mps 763 mmHg 62%
    04:00 +8°C° 0 mm 6 mps 763 mmHg 62%
    05:00 +8°C° 0 mm 6 mps 763 mmHg 62%
    06:00 +8°C° 0 mm 6 mps 763 mmHg 62%
    07:00 +8°C° 0 mm 6 mps 764 mmHg 62%
    08:00 +10°C° 0 mm 5 mps 764 mmHg 56%
    09:00 +13°C° 0 mm 5 mps 764 mmHg 50%
    10:00 +15°C° 0 mm 5 mps 764 mmHg 44%
    11:00 +17°C° 0 mm 5 mps 763 mmHg 40%
    12:00 +19°C° 0 mm 5 mps 763 mmHg 37%
    13:00 +21°C° 0 mm 6 mps 762 mmHg 34%
    14:00 +21°C° 0 mm 6 mps 762 mmHg 35%
    15:00 +20°C° 0 mm 6 mps 762 mmHg 37%
    16:00 +20°C° 0 mm 6 mps 762 mmHg 38%
    17:00 +17°C° 0 mm 6 mps 762 mmHg 40%
    18:00 +16°C° 0 mm 6 mps 762 mmHg 43%
    19:00 +14°C° 0 mm 6 mps 763 mmHg 46%
    20:00 +14°C° 0 mm 5 mps 763 mmHg 46%
    21:00 +13°C° 0 mm 5 mps 763 mmHg 45%
    22:00 +13°C° 0 mm 5 mps 763 mmHg 45%
    23:00 +13°C° 0 mm 5 mps 762 mmHg 45%

    28 January, Sunday

    Time Temperature Precipitation Wind Pressure Humidity
    00:00 +13°C° 0 mm 5 mps 762 mmHg 44%
    01:00 +13°C° 0 mm 5 mps 762 mmHg 44%
    02:00 +13°C° 0 mm 4 mps 762 mmHg 44%
    03:00 +13°C° 0 mm 4 mps 762 mmHg 45%
    04:00 +13°C° 0 mm 4 mps 762 mmHg 45%
    05:00 +13°C° 0 mm 4 mps 762 mmHg 45%
    06:00 +13°C° 0 mm 4 mps 762 mmHg 45%
    07:00 +13°C° 0 mm 4 mps 762 mmHg 45%
    08:00 +16°C° 0 mm 3 mps 762 mmHg 43%
    09:00 +18°C° 0 mm 3 mps 762 mmHg 41%
    10:00 +20°C° 0 mm 3 mps 762 mmHg 39%
    11:00 +21°C° 0 mm 3 mps 761 mmHg 36%
    12:00 +24°C° 0 mm 3 mps 761 mmHg 33%
    13:00 +25°C° 0 mm 3 mps 761 mmHg 30%
    14:00 +25°C° 0 mm 3 mps 760 mmHg 33%
    15:00 +25°C° 0 mm 3 mps 760 mmHg 35%
    16:00 +24°C° 0 mm 3 mps 760 mmHg 37%
    17:00 +22°C° 0 mm 3 mps 760 mmHg 41%
    18:00 +20°C° 0 mm 3 mps 760 mmHg 45%
    19:00 +18°C° 0 mm 3 mps 760 mmHg 49%
    20:00 +17°C° 0 mm 3 mps 760 mmHg 49%
    21:00 +17°C° 0 mm 3 mps 760 mmHg 49%
    22:00 +17°C° 0 mm 3 mps 760 mmHg 49%
    23:00 +17°C° 0 mm 3 mps 760 mmHg 48%

    29 January, Monday

    Time Temperature Precipitation Wind Pressure Humidity
    00:00 +16°C° 0 mm 3 mps 760 mmHg 48%
    01:00 +16°C° 0 mm 2 mps 760 mmHg 47%
    02:00 +16°C° 0 mm 3 mps 760 mmHg 47%
    03:00 +16°C° 0 mm 3 mps 760 mmHg 46%
    04:00 +16°C° 0 mm 3 mps 759 mmHg 46%
    05:00 +16°C° 0 mm 2 mps 759 mmHg 45%
    06:00 +16°C° 0 mm 2 mps 759 mmHg 45%
    07:00 +16°C° 0 mm 2 mps 759 mmHg 44%
    08:00 +18°C° 0 mm 2 mps 759 mmHg 41%
    09:00 +22°C° 0 mm 1 mps 760 mmHg 38%
    10:00 +24°C° 0 mm 1 mps 760 mmHg 35%
    11:00 +25°C° 0 mm 1 mps 759 mmHg 32%
    12:00 +26°C° 0 mm 1 mps 759 mmHg 30%
    13:00 +27°C° 0 mm 1 mps 759 mmHg 28%
    14:00 +26°C° 0 mm 1 mps 759 mmHg 30%
    15:00 +26°C° 0 mm 2 mps 758 mmHg 32%
    16:00 +25°C° 0 mm 2 mps 758 mmHg 35%
    17:00 +23°C° 0 mm 2 mps 758 mmHg 39%
    18:00 +20°C° 0 mm 2 mps 758 mmHg 43%
    19:00 +18°C° 0 mm 2 mps 759 mmHg 47%
    20:00 +18°C° 0 mm 2 mps 759 mmHg 46%
    21:00 +18°C° 0 mm 2 mps 759 mmHg 46%
    22:00 +18°C° 0 mm 2 mps 758 mmHg 45%
    23:00 +18°C° 0 mm 2 mps 758 mmHg 45%
    Show more